Location: Katherine
(14.4670°S, 132.2670°E)
Time: 16:19:46
(UTC+09:30)

ISS - Visible Passes

Search period start: 28 May 2017 00:00
Search period end: 07 June 2017 00:00
Orbit: 402 x 408 km, 51.6° (Epoch: 28 May)

Date Brightness Start Highest point End Pass type
(mag) Time Alt. Az. Time Alt. Az. Time Alt. Az.
29 May -2.8 05:40:31 10° NNW 05:43:39 46° NE 05:46:48 10° SE visible
30 May -0.7 04:52:52 15° E 04:52:52 15° E 04:54:00 10° E visible
30 May -2.1 06:25:56 10° W 06:28:02 16° SW 06:30:09 10° S visible
31 May -1.6 05:38:10 16° SSE 05:38:10 16° SSE 05:39:02 10° SSE visible
